MASCOMA R @ MASCOMA: From 03/08/2019 19:00 to 03/23/2019 05:00

Date STAGE [FT] FLOW [CFS] LAKE ELEVATION [FT] PRECIPITATION INCREMENT [IN] AIR TEMPERATURE [F]
03/22/2019 22:00 3.09 248.2 747.62 0.01 33.9
03/22/2019 21:00 3.09 248.2 747.62 0.01 33.6
03/22/2019 20:00 3.08 244.5 747.61 0.01 33.3
03/22/2019 19:00 3.07 240.8 747.60 0.01 33.6
03/22/2019 18:00 3.07 240.8 747.60 0.01 35.5
03/22/2019 17:00 3.07 240.8 747.60 0.01 36.2
03/22/2019 16:00 3.07 240.8 747.60 0.05 36.5
03/22/2019 15:00 3.06 237.1 747.59 0.04 35.1
03/22/2019 14:00 3.05 233.3 747.58 0.05 34.1
03/22/2019 13:00 3.05 233.3 747.57 0.06 34.4
03/22/2019 12:00 3.05 233.3 747.57 0.06 34.1
03/22/2019 11:00 3.04 229.7 747.56 0.04 34.4
03/22/2019 10:00 3.03 226.0 747.55 0.01 33.7
03/22/2019 09:00 3.03 226.0 747.55 0.00 34.0
03/22/2019 08:00 3.03 226.0 747.55 0.00 34.9
03/22/2019 07:00 3.03 226.0 747.55 0.00 33.7
03/22/2019 06:00 3.04 229.7 747.54 0.00 34.3
03/22/2019 05:00 3.04 229.7 747.54 0.00 34.1
03/22/2019 04:00 3.04 229.7 747.54 0.00 34.0
03/22/2019 03:00 3.05 233.3 747.54 0.00 35.8
03/22/2019 02:00 3.05 233.3 747.54 0.00 35.9
03/22/2019 01:00 3.04 229.7 747.54 0.00 36.4
03/22/2019 00:00 3.05 233.3 747.54 0.00 37.0
03/21/2019 23:00 3.05 233.3 747.54 0.00 37.6
03/21/2019 22:00 3.05 233.3 747.54 0.00 36.3
03/21/2019 21:00 3.05 233.3 747.54 0.00 38.3
03/21/2019 20:00 3.05 233.3 747.54 0.00 41.2
03/21/2019 19:00 3.05 233.3 747.54 0.00 41.8
03/21/2019 18:00 3.05 233.3 747.54 0.00 42.4
03/21/2019 17:00 3.06 237.1 747.55 0.00 41.8
03/21/2019 16:00 3.06 237.1 747.55 0.00 44.3
03/21/2019 15:00 3.05 233.3 747.54 0.00 45.9
03/21/2019 14:00 3.06 237.1 747.55 0.00 47.0
03/21/2019 13:00 3.05 233.3 747.55 0.00 45.4
03/21/2019 12:00 3.06 237.1 747.55 0.00 43.9
03/21/2019 11:00 3.05 233.3 747.55 0.00 43.2
03/21/2019 10:00 3.05 233.3 747.55 0.00 39.0
03/21/2019 09:00 3.06 237.1 747.55 0.00 35.3
03/21/2019 08:00 3.06 237.1 747.55 0.00 29.5
03/21/2019 07:00 3.07 240.8 747.56 0.00 28.6
03/21/2019 06:00 3.07 240.8 747.56 0.00 28.0
03/21/2019 05:00 3.07 240.8 747.56 0.00 27.5
03/21/2019 04:00 3.07 240.8 747.56 0.00 26.5
03/21/2019 03:00 3.07 240.8 747.56 0.00 26.2
03/21/2019 02:00 3.08 244.5 747.56 0.00 26.6
03/21/2019 01:00 3.08 244.5 747.57 0.00 27.3
03/21/2019 00:00 3.08 244.5 747.57 0.00 27.2
03/20/2019 23:00 3.07 240.8 747.57 0.00 28.1
03/20/2019 22:00 3.08 244.5 747.57 0.00 29.5
03/20/2019 21:00 3.09 248.2 747.57 0.00 30.4
03/20/2019 20:00 3.09 248.2 747.58 0.00 32.7
03/20/2019 19:00 3.08 244.5 747.58 0.00 38.1
03/20/2019 18:00 3.09 248.2 747.59 0.00 47.5
03/20/2019 17:00 3.09 248.2 747.59 0.00 46.9
03/20/2019 16:00 3.09 248.2 747.59 0.00 47.2
03/20/2019 15:00 3.09 248.2 747.59 0.00 49.4
03/20/2019 14:00 3.09 248.2 747.59 0.00 48.1
03/20/2019 13:00 3.10 252.0 747.59 0.00 47.7
03/20/2019 12:00 3.10 252.0 747.59 0.00 42.2
03/20/2019 11:00 3.10 252.0 747.59 0.00 32.0
03/20/2019 10:00 3.10 252.0 747.59 0.00 27.9
03/20/2019 09:00 3.11 255.7 747.60 0.00 20.9
03/20/2019 08:00 3.11 255.7 747.61 0.00 18.3
03/20/2019 07:00 3.11 255.7 747.61 0.00 15.3
03/20/2019 06:00 3.12 259.5 747.62 0.00 15.7
03/20/2019 05:00 3.12 259.5 747.62 0.00 16.8
03/20/2019 04:00 3.12 259.5 747.62 0.00 17.0
03/20/2019 03:00 3.13 263.3 747.63 0.00 19.0
03/20/2019 02:00 3.13 263.3 747.63 0.00 20.1
03/20/2019 01:00 3.13 263.3 747.63 0.00 20.3
03/20/2019 00:00 3.13 263.3 747.63 0.00 21.5
03/19/2019 23:00 3.14 267.1 747.63 0.00 22.7
03/19/2019 22:00 3.13 263.3 747.63 0.00 24.4
03/19/2019 21:00 3.13 263.3 747.64 0.00 25.8
03/19/2019 20:00 3.13 263.3 747.64 0.00 28.4
03/19/2019 19:00 3.13 263.3 747.64 0.00 32.6
03/19/2019 18:00 3.14 267.1 747.64 0.00 36.9
03/19/2019 17:00 3.14 267.1 747.64 0.00 38.3
03/19/2019 16:00 3.14 267.1 747.64 0.00 38.2
03/19/2019 15:00 3.13 263.3 747.65 0.00 39.9
03/19/2019 14:00 3.14 267.1 747.65 0.00 38.9
03/19/2019 13:00 3.14 267.1 747.65 0.00 38.3
03/19/2019 12:00 3.15 270.9 747.65 0.00 39.6
03/19/2019 11:00 3.14 267.1 747.65 0.00 36.2
03/19/2019 10:00 3.14 267.1 747.65 0.00 34.1
03/19/2019 09:00 3.15 270.9 747.65 0.00 33.7
03/19/2019 08:00 3.15 270.9 747.66 0.00 25.3
03/19/2019 07:00 3.15 270.9 747.66 0.00 22.6
03/19/2019 06:00 3.15 270.9 747.66 0.00 25.3
03/19/2019 05:00 3.15 270.9 747.66 0.00 25.3
03/19/2019 04:00 3.15 270.9 747.67 0.00 25.3
03/19/2019 03:00 3.15 270.9 747.67 0.00 25.2
03/19/2019 02:00 3.15 270.9 747.67 0.00 25.9
03/19/2019 01:00 3.15 270.9 747.67 0.00 24.4
03/19/2019 00:00 3.15 270.9 747.67 0.00 25.6
03/18/2019 23:00 3.15 270.9 747.67 0.00 27.7
03/18/2019 22:00 3.15 270.9 747.66 0.00 28.0
03/18/2019 21:00 3.15 270.9 747.66 0.00 28.0
03/18/2019 20:00 3.15 270.9 747.66 0.00 29.6
03/18/2019 19:00 3.15 270.9 747.66 0.00 32.5
03/18/2019 18:00 3.15 270.9 747.66 0.00 34.1
03/18/2019 17:00 3.15 270.9 747.66 0.00 37.1
03/18/2019 16:00 3.15 270.9 747.66 0.00 37.6
03/18/2019 15:00 3.15 270.9 747.67 0.00 38.8
03/18/2019 14:00 3.15 270.9 747.66 0.00 35.3
03/18/2019 13:00 3.14 267.1 747.65 0.00 35.9
03/18/2019 12:00 3.14 267.1 747.65 0.00 35.2
03/18/2019 11:00 3.15 270.9 747.65 0.00 34.1
03/18/2019 10:00 3.14 267.1 747.65 0.00 34.6
03/18/2019 09:00 3.14 267.1 747.65 0.00 29.8
03/18/2019 08:00 3.14 267.1 747.64 0.00 29.9
03/18/2019 07:00 3.14 267.1 747.64 0.00 18.5
03/18/2019 06:00 3.14 267.1 747.64 0.00 19.8
03/18/2019 05:00 3.14 267.1 747.64 0.00 22.0
03/18/2019 04:00 3.13 263.3 747.64 0.00 23.2
03/18/2019 03:00 3.13 263.3 747.63 0.00 20.3
03/18/2019 02:00 3.13 263.3 747.63 0.00 21.8
03/18/2019 01:00 3.12 259.5 747.63 0.00 22.1
03/18/2019 00:00 3.12 259.5 747.62 0.00 22.7
03/17/2019 23:00 3.11 255.7 747.61 0.00 23.8
03/17/2019 22:00 3.11 255.7 747.61 0.00 25.5
03/17/2019 21:00 3.09 248.2 747.59 0.00 27.5
03/17/2019 20:00 3.09 248.2 747.59 0.00 28.6
03/17/2019 19:00 3.08 244.5 747.58 0.00 29.4
03/17/2019 18:00 3.07 240.8 747.57 0.00 31.9
03/17/2019 17:00 3.07 240.8 747.56 0.00 33.1
03/17/2019 16:00 3.06 237.1 747.56 0.00 34.5
03/17/2019 15:00 3.06 237.1 747.55 0.00 32.1
03/17/2019 14:00 3.05 233.3 747.54 0.00 31.9
03/17/2019 13:00 3.04 229.7 747.53 0.00 32.9
03/17/2019 12:00 3.03 226.0 747.51 0.00 31.0
03/17/2019 11:00 3.03 226.0 747.51 0.00 30.4
03/17/2019 10:00 3.02 222.3 747.49 0.00 29.4
03/17/2019 09:00 3.00 215.0 747.48 0.00 27.7
03/17/2019 08:00 2.99 209.4 747.47 0.00 25.4
03/17/2019 07:00 2.98 204.6 747.46 0.00 23.6
03/17/2019 06:00 2.97 200.4 747.45 0.00 24.6
03/17/2019 05:00 2.97 200.4 747.44 0.00 25.5
03/17/2019 04:00 2.95 193.2 747.42 0.00 26.5
03/17/2019 03:00 2.94 190.1 747.41 0.00 29.0
03/17/2019 02:00 2.93 187.2 747.40 0.00 29.3
03/17/2019 01:00 2.92 184.6 747.39 0.00 29.6
03/17/2019 00:00 2.90 180.0 747.38 0.00 30.2
03/16/2019 23:00 2.89 177.4 747.36 0.00 30.2
03/16/2019 22:00 2.88 174.8 747.34 0.00 31.6
03/16/2019 21:00 2.86 169.7 747.32 0.00 31.3
03/16/2019 20:00 2.84 164.7 747.30 0.00 31.3
03/16/2019 19:00 2.83 162.3 747.29 0.00 33.1
03/16/2019 18:00 2.81 157.4 747.27 0.00 35.7
03/16/2019 17:00 2.80 155.0 747.25 0.00 36.9
03/16/2019 16:00 2.78 150.0 747.24 0.00 38.0
03/16/2019 15:00 2.78 150.0 747.22 0.00 37.8
03/16/2019 14:00 2.77 147.5 747.21 0.00 39.0
03/16/2019 13:00 2.76 145.1 747.20 0.00 42.2
03/16/2019 12:00 2.74 140.3 747.18 0.00 42.6
03/16/2019 11:00 2.72 135.6 747.16 0.00 41.4
03/16/2019 10:00 2.71 133.3 747.14 0.00 42.3
03/16/2019 09:00 2.69 128.9 747.13 0.00 45.5
03/16/2019 08:00 2.69 128.9 747.12 0.00 40.4
03/16/2019 07:00 2.67 124.8 747.10 0.00 40.2
03/16/2019 06:00 2.66 122.8 747.09 0.00 40.7
03/16/2019 05:00 2.66 122.8 747.08 0.00 40.9
03/16/2019 04:00 2.65 120.8 747.07 0.00 39.6
03/16/2019 03:00 2.64 118.8 747.05 0.00 37.9
03/16/2019 02:00 2.63 116.8 747.05 0.00 39.0
03/16/2019 01:00 2.62 114.8 747.03 0.00 38.4
03/16/2019 00:00 2.60 111.0 747.02 0.00 39.3
03/15/2019 23:00 2.61 112.9 747.01 0.00 38.2
03/15/2019 22:00 2.61 112.9 747.01 0.00 38.3
03/15/2019 21:00 2.60 111.0 747.00 0.00 36.2
03/15/2019 20:00 2.59 109.2 746.99 0.00 38.5
03/15/2019 19:00 2.58 107.4 746.98 0.00 42.9
03/15/2019 18:00 2.57 105.6 746.97 0.00 49.5
03/15/2019 17:00 2.57 105.6 746.97 0.00 60.3
03/15/2019 16:00 2.56 103.8 746.96 0.00 62.5
03/15/2019 15:00 2.55 102.0 746.95 0.00 61.8
03/15/2019 14:00 2.55 102.0 746.95 0.00 62.2
03/15/2019 13:00 2.53 98.6 746.94 0.00 59.0
03/15/2019 12:00 2.54 100.3 746.93 0.00 53.7
03/15/2019 11:00 2.54 100.3 746.93 0.00 46.8
03/15/2019 10:00 2.53 98.6 746.93 0.00 42.9
03/15/2019 09:00 2.54 100.3 746.92 0.04 40.3
03/15/2019 08:00 2.55 102.0 746.92 0.02 39.2
03/15/2019 07:00 2.56 103.8 746.92 0.00 38.1
03/15/2019 06:00 2.56 103.8 746.92 0.00 39.6
03/15/2019 05:00 2.55 102.0 746.91 0.00 39.0
03/15/2019 04:00 2.55 102.0 746.92 0.00 40.6
03/15/2019 03:00 2.54 100.3 746.92 0.00 40.7
03/15/2019 02:00 2.54 100.3 746.91 0.00 39.5
03/15/2019 01:00 2.54 100.3 746.91 0.00 38.6
03/15/2019 00:00 2.54 100.3 746.91 0.00 37.5
03/14/2019 23:00 2.54 100.3 746.91 0.00 37.5
03/14/2019 22:00 2.54 100.3 746.91 0.00 40.8
03/14/2019 21:00 2.54 100.3 746.91 0.00 38.4
03/14/2019 20:00 2.55 102.0 746.91 0.00 42.1
03/14/2019 19:00 2.55 102.0 746.91 0.00 43.6
03/14/2019 18:00 2.55 102.0 746.90 0.00 44.8
03/14/2019 17:00 2.55 102.0 746.90 0.00 43.5
03/14/2019 16:00 2.55 102.0 746.90 0.00 42.3
03/14/2019 15:00 2.55 102.0 746.90 0.00 41.3
03/14/2019 14:00 2.54 100.3 746.90 0.00 41.1
03/14/2019 13:00 2.54 100.3 746.90 0.00 41.5
03/14/2019 12:00 2.54 100.3 746.90 0.00 38.4
03/14/2019 11:00 2.54 100.3 746.90 0.07 36.7
03/14/2019 10:00 2.54 100.3 746.90 0.00 35.3
03/14/2019 09:00 2.54 100.3 746.90 0.00 33.7
03/14/2019 08:00 2.54 100.3 746.90 0.00 32.7
03/14/2019 07:00 2.54 100.3 746.89 0.00 31.9
03/14/2019 06:00 2.54 100.3 746.90 0.00 31.8
03/14/2019 05:00 2.54 100.3 746.90 0.00 31.5
03/14/2019 04:00 2.54 100.3 746.90 0.00 31.4
03/14/2019 03:00 2.54 100.3 746.90 0.00 31.1
03/14/2019 02:00 2.54 100.3 746.90 0.00 31.5
03/14/2019 01:00 2.54 100.3 746.89 0.00 31.5
03/14/2019 00:00 2.54 100.3 746.89 0.00 31.7
03/13/2019 23:00 2.54 100.3 746.89 0.00 31.4
03/13/2019 22:00 2.54 100.3 746.89 0.00 32.4
03/13/2019 21:00 2.54 100.3 746.89 0.00 32.9
03/13/2019 20:00 2.53 98.6 746.88 0.00 35.3
03/13/2019 19:00 2.53 98.6 746.88 0.00 36.0
03/13/2019 18:00 2.54 100.3 746.88 0.00 37.8
03/13/2019 17:00 2.54 100.3 746.88 0.00 39.5
03/13/2019 16:00 2.53 98.6 746.88 0.00 41.1
03/13/2019 15:00 2.53 98.6 746.88 0.00 39.6
03/13/2019 14:00 2.53 98.6 746.88 0.00 44.9
03/13/2019 13:00 2.53 98.6 746.88 0.00 42.5
03/13/2019 12:00 2.54 100.3 746.88 0.00 32.6
03/13/2019 11:00 2.54 100.3 746.89 0.00 28.4
03/13/2019 10:00 2.54 100.3 746.88 0.00 34.3
03/13/2019 09:00 2.54 100.3 746.88 0.00 20.1
03/13/2019 08:00 2.54 100.3 746.88 0.00 14.0
03/13/2019 07:00 2.54 100.3 746.88 0.00 11.4
03/13/2019 06:00 2.54 100.3 746.88 0.00 15.2
03/13/2019 05:00 2.53 98.6 746.88 0.00 13.6
03/13/2019 04:00 2.53 98.6 746.88 0.00 16.1
03/13/2019 03:00 2.52 96.9 746.88 0.00 19.2
03/13/2019 02:00 2.52 96.9 746.88 0.00 20.9
03/13/2019 01:00 2.52 96.9 746.88 0.00 22.3
03/13/2019 00:00 2.52 96.9 746.88 0.00 24.4
03/12/2019 23:00 2.53 98.6 746.88 0.00 26.3
03/12/2019 22:00 2.52 96.9 746.87 0.00 28.1
03/12/2019 21:00 2.52 96.9 746.87 0.00 29.0
03/12/2019 20:00 2.52 96.9 746.87 0.00 31.0
03/12/2019 19:00 2.52 96.9 746.87 0.00 33.0
03/12/2019 18:00 2.52 96.9 746.87 0.00 36.0
03/12/2019 17:00 2.51 95.2 746.87 0.00 38.9
03/12/2019 16:00 2.51 95.2 746.87 0.00 40.2
03/12/2019 15:00 2.51 95.2 746.87 0.00 39.7
03/12/2019 14:00 2.51 95.2 746.87 0.00 38.1
03/12/2019 13:00 2.51 95.2 746.87 0.00 35.4
03/12/2019 12:00 2.50 93.5 746.87 0.00 37.1
03/12/2019 11:00 2.51 95.2 746.87 0.00 35.6
03/12/2019 10:00 2.51 95.2 746.87 0.00 32.0
03/12/2019 09:00 2.52 96.9 746.87 0.00 30.6
03/12/2019 08:00 2.51 95.2 746.87 0.00 27.0
03/12/2019 07:00 2.51 95.2 746.87 0.00 26.7
03/12/2019 06:00 2.50 93.5 746.87 0.00 27.0
03/12/2019 05:00 2.51 95.2 746.86 0.00 27.5
03/12/2019 04:00 2.50 93.5 746.86 0.00 28.6
03/12/2019 03:00 2.50 93.5 746.86 0.00 29.5
03/12/2019 02:00 2.50 93.5 746.86 0.00 29.9
03/12/2019 01:00 2.50 93.5 746.86 0.00 30.8
03/12/2019 00:00 2.50 93.5 746.86 0.00 31.2
03/11/2019 23:00 2.50 93.5 746.86 0.00 31.5
03/11/2019 22:00 2.50 93.5 746.86 0.00 33.1
03/11/2019 21:00 2.50 93.5 746.86 0.00 33.9
03/11/2019 20:00 2.49 92.1 746.86 0.00 34.9
03/11/2019 19:00 2.48 90.7 746.85 0.00 35.4
03/11/2019 18:00 2.49 92.1 746.85 0.00 36.6
03/11/2019 17:00 2.50 93.5 746.85 0.00 37.5
03/11/2019 16:00 2.49 92.1 746.85 0.00 38.7
03/11/2019 15:00 2.50 93.5 746.85 0.00 40.1
03/11/2019 14:00 2.48 90.7 746.85 0.00 39.6
03/11/2019 13:00 2.50 93.5 746.85 0.00 40.6
03/11/2019 12:00 2.49 92.1 746.85 0.00 43.7
03/11/2019 11:00 2.49 92.1 746.85 0.00 43.3
03/11/2019 10:00 2.49 92.1 746.85 0.02 40.9
03/11/2019 09:00 2.49 92.1 746.84 0.00 39.1
03/11/2019 08:00 2.50 93.5 746.84 0.01 35.2
03/11/2019 07:00 2.48 90.7 746.84 0.00 34.6
03/11/2019 06:00 2.48 90.7 746.84 0.00 34.7
03/11/2019 05:00 2.48 90.7 746.84 0.00 31.1
03/11/2019 04:00 2.48 90.7 746.84 0.00 31.4
03/11/2019 03:00 2.48 90.7 746.84 0.00 31.9
03/11/2019 02:00 2.48 90.7 746.83 0.00 32.5
03/11/2019 01:00 2.48 90.7 746.83 0.00 32.4
03/11/2019 00:00 2.48 90.7 746.83 0.00 31.9
03/10/2019 23:00 2.48 90.7 746.83 0.00 31.8
03/10/2019 22:00 2.47 89.4 746.83 0.00 31.7
03/10/2019 21:00 2.47 89.4 746.83 0.00 31.7
03/10/2019 20:00 2.48 90.7 746.83 0.00 31.0
03/10/2019 19:00 2.49 92.1 746.83 0.00 30.2
03/10/2019 18:00 2.49 92.1 746.83 0.00 29.9
03/10/2019 17:00 2.46 88.0 746.83 0.00 29.3
03/10/2019 16:00 2.48 90.7 746.82 0.00 29.4
03/10/2019 15:00 2.49 92.1 746.83 0.00 29.0
03/10/2019 14:00 2.50 93.5 746.82 0.00 28.4
03/10/2019 13:00 2.49 92.1 746.82 0.00 27.6
03/10/2019 12:00 2.50 93.5 746.82 0.00 27.2
03/10/2019 11:00 2.48 90.7 746.81 0.00 26.3
03/10/2019 10:00 2.46 88.0 746.80 0.00 25.4
03/10/2019 09:00 2.46 88.0 746.80 0.00 24.5
03/10/2019 08:00 2.45 86.7 746.80 0.00 26.8
03/10/2019 07:00 2.46 88.0 746.80 0.00 26.1
03/10/2019 06:00 2.47 89.4 746.79 0.00 25.9
03/10/2019 05:00 2.48 90.7 746.79 0.00 25.9
03/10/2019 04:00 2.47 89.4 746.79 0.00 25.9
03/10/2019 03:00 2.46 88.0 746.79 0.00 26.8
03/10/2019 02:00 2.46 88.0 746.79 0.00 27.4
03/10/2019 01:00 2.46 88.0 746.79 0.00 27.4
03/10/2019 00:00 2.46 88.0 746.78 0.00 26.7
03/09/2019 23:00 2.46 88.0 746.78 0.00 13.6
03/09/2019 22:00 2.46 88.0 746.78 0.00 14.1
03/09/2019 21:00 2.45 86.7 746.77 -- 17.1
03/09/2019 20:00 2.46 88.0 746.77 0.00 19.1
03/09/2019 19:00 2.46 88.0 746.77 0.00 23.4
03/09/2019 18:00 2.45 86.7 746.77 0.00 27.0
03/09/2019 17:00 2.44 85.3 746.77 0.00 37.3
03/09/2019 16:00 2.44 85.3 746.77 0.00 40.2
03/09/2019 15:00 2.44 85.3 746.76 0.00 41.2
03/09/2019 14:00 2.43 84.0 746.76 0.00 41.4
03/09/2019 13:00 2.44 85.3 746.76 0.00 41.7
03/09/2019 12:00 2.44 85.3 746.76 0.00 37.5
03/09/2019 11:00 2.44 85.3 746.76 0.00 39.0
03/09/2019 10:00 2.43 84.0 746.75 0.00 35.5
03/09/2019 09:00 2.44 85.3 746.75 0.00 17.7
03/09/2019 08:00 2.44 85.3 746.75 0.00 7.6
03/09/2019 07:00 2.44 85.3 746.75 0.00 4.0
03/09/2019 06:00 2.44 85.3 746.75 0.00 2.6
03/09/2019 05:00 2.44 85.3 746.75 0.00 2.8
03/09/2019 04:00 2.43 84.0 746.75 0.00 4.4
03/09/2019 03:00 2.43 84.0 746.74 0.00 5.9
03/09/2019 02:00 2.44 85.3 746.74 0.00 7.5
03/09/2019 01:00 2.43 84.0 746.74 0.00 8.7
03/09/2019 00:00 2.43 84.0 746.74 0.00 12.4
03/08/2019 23:00 -- -- -- -- --
03/08/2019 22:00 -- -- -- -- --
03/08/2019 21:00 -- -- -- -- --
03/08/2019 20:00 -- -- -- -- --
03/08/2019 19:00 -- -- -- -- --